When you browse on this site, cookies collect data to enhance your experience and personalize the content and advertising you see.
Visit our Privacy Policy to learn more. By continuing to use the site, you agree to this use of cookies and data.
  • En España
  • Lista de países
  • Para 7 días
  • Temperatura del agua
  • El tiempo en el mapa
  • Informadores
  • user-avatar
    Iniciar sesión

    Tiempo cada hora Al Hudaydah

    Hoy, 2 Junio, Martes

    Tiempo Temperatura Precipitaciones Viento Presión Humedad
    00:00 +34°C° 0 mm 4 mps 750 mmHg 70%
    01:00 +33°C° 0 mm 4 mps 750 mmHg 73%
    02:00 +33°C° 0 mm 3 mps 749 mmHg 75%
    03:00 +33°C° 0 mm 3 mps 749 mmHg 79%
    04:00 +32°C° 0 mm 2 mps 749 mmHg 79%
    05:00 +31°C° 0 mm 2 mps 750 mmHg 80%
    06:00 +31°C° 0 mm 1 mps 750 mmHg 80%
    07:00 +32°C° 0 mm 2 mps 750 mmHg 75%
    08:00 +34°C° 0 mm 2 mps 750 mmHg 70%
    09:00 +36°C° 0 mm 2 mps 750 mmHg 65%
    10:00 +37°C° 0 mm 3 mps 750 mmHg 59%
    11:00 +38°C° 0 mm 4 mps 750 mmHg 53%
    12:00 +41°C° 0 mm 5 mps 750 mmHg 47%
    13:00 +41°C° 0 mm 6 mps 749 mmHg 47%
    14:00 +40°C° 0 mm 6 mps 749 mmHg 47%
    15:00 +40°C° 0 mm 6 mps 748 mmHg 47%
    16:00 +39°C° 0 mm 6 mps 748 mmHg 49%
    17:00 +38°C° 0 mm 6 mps 748 mmHg 51%
    18:00 +37°C° 0 mm 5 mps 748 mmHg 53%
    19:00 +36°C° 0 mm 5 mps 749 mmHg 56%
    20:00 +35°C° 0 mm 4 mps 749 mmHg 58%
    21:00 +35°C° 0 mm 3 mps 749 mmHg 61%
    22:00 +34°C° 0 mm 3 mps 749 mmHg 62%
    23:00 +34°C° 0 mm 3 mps 749 mmHg 63%

    Mañana, 3 Junio, Miércoles

    Tiempo Temperatura Precipitaciones Viento Presión Humedad
    00:00 +34°C° 0 mm 3 mps 749 mmHg 64%
    01:00 +34°C° 0 mm 2 mps 749 mmHg 66%
    02:00 +32°C° 0 mm 2 mps 748 mmHg 69%
    03:00 +32°C° 0 mm 2 mps 748 mmHg 71%
    04:00 +32°C° 0 mm 1 mps 749 mmHg 72%
    05:00 +31°C° 0 mm 1 mps 749 mmHg 72%
    06:00 +29°C° 0 mm 0 mps 749 mmHg 72%
    07:00 +32°C° 0 mm 1 mps 750 mmHg 67%
    08:00 +35°C° 0 mm 2 mps 750 mmHg 62%
    09:00 +36°C° 0 mm 3 mps 750 mmHg 57%
    10:00 +37°C° 0 mm 4 mps 750 mmHg 53%
    11:00 +39°C° 0 mm 5 mps 749 mmHg 49%
    12:00 +40°C° 0 mm 5 mps 749 mmHg 44%
    13:00 +40°C° 0 mm 6 mps 749 mmHg 45%
    14:00 +40°C° 0 mm 6 mps 748 mmHg 46%
    15:00 +39°C° 0 mm 6 mps 748 mmHg 48%
    16:00 +39°C° 0.2 mm 5 mps 748 mmHg 49%
    17:00 +37°C° 0.2 mm 4 mps 748 mmHg 51%
    18:00 +36°C° 0.2 mm 2 mps 748 mmHg 52%
    19:00 +36°C° 0 mm 2 mps 749 mmHg 54%
    20:00 +35°C° 0 mm 2 mps 749 mmHg 56%
    21:00 +34°C° 0 mm 1 mps 749 mmHg 58%
    22:00 +34°C° 0 mm 1 mps 749 mmHg 56%
    23:00 +34°C° 0 mm 1 mps 749 mmHg 55%

    Pasado mañana, 4 Junio, Jueves

    Tiempo Temperatura Precipitaciones Viento Presión Humedad
    00:00 +35°C° 0 mm 1 mps 749 mmHg 53%
    01:00 +35°C° 0 mm 2 mps 749 mmHg 57%
    02:00 +34°C° 0 mm 3 mps 749 mmHg 61%
    03:00 +34°C° 0 mm 4 mps 748 mmHg 64%
    04:00 +33°C° 0 mm 3 mps 749 mmHg 66%
    05:00 +33°C° 0 mm 3 mps 749 mmHg 67%
    06:00 +32°C° 0 mm 2 mps 750 mmHg 69%
    07:00 +34°C° 0 mm 3 mps 750 mmHg 64%
    08:00 +35°C° 0 mm 3 mps 750 mmHg 59%
    09:00 +36°C° 0 mm 3 mps 751 mmHg 55%
    10:00 +36°C° 0.4 mm 4 mps 751 mmHg 53%
    11:00 +36°C° 0.4 mm 4 mps 751 mmHg 52%
    12:00 +37°C° 0.4 mm 5 mps 750 mmHg 51%
    13:00 +36°C° 0.7 mm 6 mps 750 mmHg 55%
    14:00 +34°C° 0.7 mm 7 mps 750 mmHg 60%
    15:00 +33°C° 0.7 mm 8 mps 750 mmHg 65%
    16:00 +33°C° 0.1 mm 7 mps 750 mmHg 61%
    17:00 +34°C° 0.1 mm 6 mps 750 mmHg 57%
    18:00 +34°C° 0.1 mm 6 mps 750 mmHg 54%
    19:00 +32°C° 2 mm 5 mps 750 mmHg 61%
    20:00 +30°C° 2 mm 4 mps 751 mmHg 69%
    21:00 +28°C° 2 mm 3 mps 751 mmHg 77%
    22:00 +29°C° 0.2 mm 2 mps 751 mmHg 74%
    23:00 +30°C° 0.2 mm 2 mps 751 mmHg 71%

    5 Junio, Viernes

    Tiempo Temperatura Precipitaciones Viento Presión Humedad
    00:00 +30°C° 0.2 mm 2 mps 751 mmHg 67%
    01:00 +30°C° 0.1 mm 2 mps 750 mmHg 67%
    02:00 +30°C° 0.1 mm 2 mps 750 mmHg 66%
    03:00 +31°C° 0.1 mm 1 mps 750 mmHg 65%
    04:00 +31°C° 0 mm 2 mps 750 mmHg 66%
    05:00 +31°C° 0 mm 2 mps 751 mmHg 67%
    06:00 +31°C° 0 mm 2 mps 751 mmHg 67%
    07:00 +32°C° 0 mm 2 mps 752 mmHg 62%
    08:00 +34°C° 0 mm 2 mps 752 mmHg 57%
    09:00 +35°C° 0 mm 3 mps 753 mmHg 52%
    10:00 +36°C° 0 mm 3 mps 752 mmHg 48%
    11:00 +37°C° 0 mm 3 mps 752 mmHg 43%
    12:00 +38°C° 0 mm 4 mps 752 mmHg 39%
    13:00 +38°C° 0 mm 4 mps 751 mmHg 40%
    14:00 +39°C° 0 mm 5 mps 751 mmHg 40%
    15:00 +39°C° 0 mm 5 mps 750 mmHg 41%
    16:00 +38°C° 0 mm 4 mps 750 mmHg 42%
    17:00 +37°C° 0 mm 3 mps 750 mmHg 44%
    18:00 +36°C° 0 mm 3 mps 750 mmHg 45%
    19:00 +36°C° 0 mm 2 mps 751 mmHg 46%
    20:00 +36°C° 0 mm 2 mps 751 mmHg 47%
    21:00 +36°C° 0 mm 2 mps 752 mmHg 47%
    22:00 +36°C° 0 mm 2 mps 752 mmHg 49%
    23:00 +36°C° 0 mm 3 mps 752 mmHg 50%

    6 Junio, Sábado

    Tiempo Temperatura Precipitaciones Viento Presión Humedad
    00:00 +36°C° 0 mm 3 mps 752 mmHg 51%
    01:00 +35°C° 0 mm 3 mps 751 mmHg 53%
    02:00 +35°C° 0 mm 3 mps 751 mmHg 54%
    03:00 +35°C° 0 mm 3 mps 751 mmHg 55%
    04:00 +34°C° 0 mm 2 mps 751 mmHg 56%
    05:00 +34°C° 0 mm 2 mps 751 mmHg 57%
    06:00 +33°C° 0 mm 1 mps 752 mmHg 58%
    07:00 +36°C° 0 mm 2 mps 752 mmHg 51%
    08:00 +37°C° 0 mm 2 mps 752 mmHg 45%
    09:00 +38°C° 0 mm 2 mps 752 mmHg 38%
    10:00 +39°C° 0 mm 3 mps 752 mmHg 37%
    11:00 +41°C° 0 mm 4 mps 752 mmHg 36%
    12:00 +41°C° 0 mm 5 mps 751 mmHg 35%
    13:00 +41°C° 0 mm 5 mps 751 mmHg 36%
    14:00 +41°C° 0 mm 5 mps 750 mmHg 36%
    15:00 +41°C° 0 mm 6 mps 750 mmHg 36%
    16:00 +41°C° 0 mm 5 mps 750 mmHg 37%
    17:00 +40°C° 0 mm 5 mps 750 mmHg 38%
    18:00 +38°C° 0 mm 4 mps 750 mmHg 39%
    19:00 +38°C° 0 mm 4 mps 750 mmHg 42%
    20:00 +38°C° 0 mm 4 mps 750 mmHg 45%
    21:00 +37°C° 0 mm 4 mps 751 mmHg 47%
    22:00 +37°C° 0 mm 4 mps 750 mmHg 48%
    23:00 +37°C° 0 mm 4 mps 750 mmHg 50%

    7 Junio, Domingo

    Tiempo Temperatura Precipitaciones Viento Presión Humedad
    00:00 +36°C° 0 mm 4 mps 750 mmHg 51%
    01:00 +36°C° 0 mm 4 mps 750 mmHg 53%
    02:00 +36°C° 0 mm 4 mps 749 mmHg 55%
    03:00 +35°C° 0 mm 5 mps 749 mmHg 56%
    04:00 +35°C° 0 mm 4 mps 749 mmHg 58%
    05:00 +35°C° 0 mm 4 mps 750 mmHg 59%
    06:00 +35°C° 0 mm 4 mps 750 mmHg 60%
    07:00 +36°C° 0 mm 3 mps 750 mmHg 56%
    08:00 +37°C° 0 mm 3 mps 751 mmHg 52%
    09:00 +38°C° 0 mm 2 mps 751 mmHg 47%
    10:00 +39°C° 0 mm 3 mps 751 mmHg 45%
    11:00 +41°C° 0 mm 4 mps 750 mmHg 42%
    12:00 +42°C° 0 mm 4 mps 750 mmHg 39%
    13:00 +42°C° 0 mm 5 mps 750 mmHg 40%
    14:00 +42°C° 0 mm 6 mps 749 mmHg 41%
    15:00 +41°C° 0 mm 6 mps 749 mmHg 42%
    16:00 +41°C° 0 mm 6 mps 749 mmHg 42%
    17:00 +40°C° 0 mm 5 mps 749 mmHg 43%
    18:00 +40°C° 0 mm 4 mps 748 mmHg 43%
    19:00 +38°C° 0 mm 4 mps 749 mmHg 45%
    20:00 +38°C° 0 mm 4 mps 749 mmHg 48%
    21:00 +37°C° 0 mm 4 mps 750 mmHg 50%
    22:00 +37°C° 0 mm 4 mps 749 mmHg 50%
    23:00 +37°C° 0 mm 4 mps 749 mmHg 50%
    Mostrar más